Hourly Data Report for October 02, 2017

All times are specified in Local Standard Time (LST). Add 1 hour to adjust for Daylight Saving Time where and when it is observed.

CHARLOTTETOWN A
PRINCE EDWARD ISLAND

46°17'21.000" N
63°07'09.000" W
48.50 m
8300301
71706
YYG

Download Data

Hourly Data (October 2017)
Hourly Data Report for October 2, 2017
Temp Definition
°C
Dew Point Temp Definition
°C
Rel Hum Definition
%
Wind Dir Definition
10's deg

Wind Spd Definition
km/h
Visibility Definition
km
Stn Press Definition
kPa
Hmdx Definition


Wind Chill Definition


Weather Definition


TIME
00:00 Legend Double Dagger 11.4 7.1 75 29 12 24.1 101.26     LegendNANA
01:00 Legend Double Dagger 11.1 6.4 73 31 14 24.1 101.30     LegendNANA
02:00 Legend Double Dagger 10.9 7.3 79 33 9 24.1 101.32     Clear
03:00 Legend Double Dagger 12.4 8.2 76 36 18 24.1 101.33     LegendNANA
04:00 Legend Double Dagger 11.4 5.2 66 36 17 24.1 101.42     LegendNANA
05:00 Legend Double Dagger 10.1 3.7 64 36 13 24.1 101.50     Mainly Clear
06:00 Legend Double Dagger 9.6 4.3 69 36 11 24.1 101.63     LegendNANA
07:00 Legend Double Dagger 9.8 4.6 70 36 17 24.1 101.74     LegendNANA
08:00 Legend Double Dagger 10.6 4.1 64 2 23 24.1 101.81     Mainly Clear
09:00 Legend Double Dagger 9.6 2.4 61 35 21 24.1 101.89     LegendNANA
10:00 Legend Double Dagger 10.3 2.9 60 1 21 24.1 101.95     LegendNANA
11:00 Legend Double Dagger 10.1 2.7 60 34 18 24.1 102.02     Cloudy
12:00 Legend Double Dagger 10.0 3.0 62 1 23 24.1 102.11     LegendNANA
13:00 Legend Double Dagger 9.5 2.2 60 36 23 24.1 102.16     LegendNANA
14:00 Legend Double Dagger 9.2 2.3 62 35 26 24.1 102.22     Cloudy
15:00 Legend Double Dagger 8.6 2.1 64 36 24 24.1 102.29     LegendNANA
16:00 Legend Double Dagger 8.3 1.9 64 36 23 24.1 102.32     LegendNANA
17:00 Legend Double Dagger 8.2 2.0 65 36 20 24.1 102.40     Mostly Cloudy
18:00 Legend Double Dagger 8.0 2.0 66 36 14 24.1 102.47     LegendNANA
19:00 Legend Double Dagger 8.3 2.0 65 36 19 24.1 102.55     LegendNANA
20:00 Legend Double Dagger 8.7 2.7 66 1 19 24.1 102.61     Mostly Cloudy
21:00 Legend Double Dagger 8.8 3.1 67 2 23 24.1 102.64     LegendNANA
22:00 Legend Double Dagger 9.2 3.2 66 1 18 24.1 102.68     LegendNANA
23:00 Legend Double Dagger 9.4 3.0 64 1 18 24.1 102.68     Cloudy

Notes on Data Quality.

Legend

  • E = Estimated
  • M = Missing
  • NA = Not Available
  • ‡ = Partner data that is not subject to review by the National Climate Archives
Date modified: